Regional Weather Roundup
Issued by NWS

Home | Current Version | Previous Version | Text Only | Print | Product List | Glossary On
Versions: 1 2 3 4 5 6 7 8 9 10 11 12 13 14 15 16 17 18 19 20 21 22 23 24 25 26 27 28 29 30 31 32 33 34 35 36 37 38 39 40 41 42 43 44 45 46 47 48 49 50
000
ASUS46 KLOX 271312
RWRCA

SOUTHERN CALIFORNIA WEATHER ROUNDUP
NATIONAL WEATHER SERVICE OXNARD CALIFORNIA
600 AM PDT WED AUG 27 2014

NOTE: "FAIR" INDICATES FEW OR NO CLOUDS BELOW 12,000 FEET WITH NO
SIGNIFICANT WEATHER AND/OR OBSTRUCTIONS TO VISIBILITY.

  -  STATIONS PRECEEDED BY AN ASTERISK (*) ARE NOT NWS OR FAA
     STATIONS AND ARE NOT SUBJECT TO NWS AND FAA QUALITY CONTROL.

CAZ041-042-087-271400-
LA AND ORANGE COUNTY COASTAL AREAS


CITY           SKY/WX    TMP DP  RH WIND       PRES   REMARKS
L.A. DOWNTOWN  CLEAR     66  61  84 CALM      30.01R
L.A. AIRPORT   CLEAR     68  62  81 CALM      30.02R
LONG BEACH     CLEAR     68  63  84 CALM      30.01R

CITY           SKY/WX    TMP DP  RH WIND       PRES   REMARKS
AVALON           N/A     63 N/A N/A MISG        N/A
FULLERTON      CLEAR     68  61  78 CALM      30.01R
*GETTY CENTER    N/A     68  48  49 NE2         N/A
HAWTHORNE      CLEAR     68  63  84 CALM      30.02R
*LOS ALAMITOS  FAIR      64  62  93 CALM      30.02R
*REDONDO BEACH   N/A     64  60  88 CALM      30.01R
SANTA ANA      CLEAR     70  63  78 CALM      30.01R
STA MONICA APT CLEAR     67  57  70 CALM      30.02R
*UCLA            N/A     64  52  63 N7        30.00S

$$

CAZ547-548-048-271400-
LA COUNTY VALLEYS AND INLAND EMPIRE


CITY           SKY/WX    TMP DP  RH WIND       PRES   REMARKS
BURBANK        CLEAR     67  47  48 CALM      30.03R
VAN NUYS       CLEAR     68  50  52 CALM      30.03R

CITY           SKY/WX    TMP DP  RH WIND       PRES   REMARKS
CORONA AIRPORT SUNNY     58  54  86 CALM      30.03R
*CHATSWORTH      N/A     65  49  55 CALM      30.00R
CHINO          CLEAR     64  58  80 CALM      30.04R
MARCH AFB      CLEAR     64  51  62 CALM      30.06R
*NORTHRIDGE      N/A     64  48  55 CALM        N/A
ONTARIO        CLEAR     69  57  65 CALM      30.03R
*PASADENA        N/A     70  46  43 CALM        N/A
RIVERSIDE      CLEAR     68  59  73 CALM      30.03R
SAN BERNARDINO NOT AVBL
*SAN GABRIEL     N/A     66  56  71 CALM      29.98S
*WHITEMAN AP   NOT AVBL
*WOODLAND HILL   N/A     63  52  67 SE1         N/A

$$

CAZ054-055-271400-
LA AND SAN BERNARDINO COUNTY MOUNTAINS


CITY           SKY/WX    TMP DP  RH WIND       PRES   REMARKS
*BIG BEAR AIRP SUNNY     48  41  76 CALM      30.33S
MT WILSON NWS    N/A     61  46  59 MISG        N/A
SANDBERG       CLEAR     65  36  34 SW9       30.20R

$$

CAZ028-029-059-060-099-271400-
ANTELOPE VALLEY AND SURROUNDING AREAS


CITY           SKY/WX    TMP DP  RH WIND       PRES   REMARKS
LANCASTER      CLEAR     54  35  48 CALM      30.08R
PALMDALE       CLEAR     74  37  26 SW3       30.09R

CITY           SKY/WX    TMP DP  RH WIND       PRES   REMARKS
29 PALMS       CLEAR     72  43  35 NW3       30.10R
BARSTOW/DAGGET CLEAR     69  39  33 SW12      30.05R
BISHOP         CLEAR     57  33  40 NW9       30.17R
CHINA LAKE     CLEAR     61  34  36 S5        30.05R
EDWARDS AFB    CLEAR     60  38  43 S6        30.06R
MOJAVE         FAIR      64  37  36 W7        30.09R
NEEDLES        CLEAR     79  61  53 W5        29.95R
VICTORVILLE    CLEAR     61  39  44 SW5       30.11R

$$

CAZ039-040-271400-
VENTURA AND SANTA BARBARA COUNTY COAST


CITY           SKY/WX    TMP DP  RH WIND       PRES   REMARKS
CAMARILLO      CLEAR     63  53  70 CALM      30.02R
NWS OXNARD       N/A     59  52  76 CALM      30.02R
OXNARD AIRPORT CLEAR     61  53  75 E3        30.01R
*POINT MUGU    CLEAR     61  55  81 SW3       30.02R
SBA APT/GOLETA CLEAR     56  50  80 CALM        N/A
*SANTA BARBARA   N/A     60  51  72 CALM      30.09R
*VENTURA         N/A     60  47  62 CALM      30.08R

$$

CAZ044-045-271400-
VENTURA COUNTY VALLEYS


CITY           SKY/WX    TMP DP  RH WIND       PRES   REMARKS
*SIMI VALLEY     N/A     62  47  58 CALM      29.98R
*OJAI            N/A     53  45  73 CALM      29.98R
*FILLMORE        N/A     56  49  79 SW1       29.93R

$$

CAZ053-271400-
VENTURA COUNTY MOUNTAINS


CITY           SKY/WX    TMP DP  RH WIND       PRES   REMARKS
*LOCKWOOD VLY    N/A     37  19  48 NW1         N/A
*ROSE VALLEY     N/A     41  30  65 MISG        N/A

$$

CAZ034-035-036-271400-
CENTRAL COAST AND SANTA YNEZ VALLEY


CITY           SKY/WX    TMP DP  RH WIND       PRES   REMARKS
SAN LUIS OBISP CLEAR     53  49  86 CALM      30.03R
SANTA MARIA    CLEAR     56  51  84 CALM      30.03R

CITY           SKY/WX    TMP DP  RH WIND       PRES   REMARKS
*CAL POLY SLO    N/A     52  52 100 CALM        N/A
*LOMPOC        CLEAR     52  46  82 SE5       30.03R
*PISMO BEACH     N/A     54  52  92 CALM      30.03R
*SANTA YNEZ    FAIR      52  46  82 CALM      30.03R

$$

CAZ037-038-051-271400-
SAN LUIS OBISPO COUNTY INTERIOR AND CUYAMA VALLEY


CITY           SKY/WX    TMP DP  RH WIND       PRES   REMARKS
*CUYAMA          N/A     56  41  57 E2        29.98S
PASO ROBLES    CLEAR     53  46  77 CALM      30.05R

$$

CAZ032-033-061-271400-
SOUTHERN DESERTS


CITY           SKY/WX    TMP DP  RH WIND       PRES   REMARKS
BLYTHE         CLEAR     81  56  42 N3        29.91R
IMPERIAL       CLEAR     80  50  34 SW6       29.89R
PALM SPRINGS   CLEAR     81  52  36 CALM      29.94R
THERMAL        CLEAR     73  50  44 SE6       29.88R

$$

ELSEWHERE ACROSS THE WESTERN UNITED STATES AND MEXICO


CITY           SKY/WX    TMP DP  RH WIND       PRES   REMARKS
DENVER, CO     CLOUDY    59  56  89 S5        30.16R
GRAND CANYON,  PTCLDY    48  46  93 CALM      30.35
HONOLULU, HI   PTCLDY    79  66  65 NE10      29.91F
KAHULUI, MAUI  CLOUDY    77  66  69 NE12      29.90F
LAKE TAHOE, CA CLEAR     41  34  76 S3        30.31R
LAS VEGAS, NV  CLEAR     75  45  34 CALM      30.02R
MAMMOTH LAKES, FAIR      43  30  61 CALM      30.36R
MEXICO CITY, M PTCLDY    55  50  82 E6        30.37R
PHOENIX, AZ    PTCLDY    84  60  44 E8        29.99R
PORTLAND, OR   CLEAR     65  59  81 NW6       30.02R
RENO, NV       CLEAR     55  38  52 CALM      30.22R
SALT LAKE CITY CLOUDY    60  56  86 S7        30.20R
SAN DIEGO, CA  PTCLDY    70  61  73 NE3       30.01R
SAN FRANCISCO, PTCLDY    62  59  90 W6        30.03R
SAN JOSE, CA   PTCLDY    60  54  80 CALM      30.03R
SEATTLE, WA    CLEAR     64  56  75 CALM      30.03S
TIJUANA, MEX   CLEAR     66  59  77 CALM      30.03R

$$

STATION/POSITION TIME  TEMP    WIND        PRES    VSBY  WAVE
                       AIR SEA DIR/SP/G                  HT/PER
                 (UTC) (F)     (DEG/KT/KT) (MB)    (MI)  (FT/S)
POINT ARGUELLO B NOT AVBL
WEST SANTA BARBA 1300   63 63  320/ 10/ 10 1015.3R         5/16
POINT CONCEPTION NOT AVBL
EAST SANTA BARBA 1300   65 66   CALM  /  2 1016.2R
SANTA MONICA BAY 1300   69 71  320/  4/  6 1016.0R         7/15



USA.gov is the U.S. government's official web portal to all federal, state and local government web resources and services.